Voltar ao catálogo

USA 409

AtivoMilitarVLEO
NORAD 61030·PAYLOAD·🇺🇸 United States

Lançado Sep 6, 2024 de Vandenberg Space Force Base

Loading…

Próximas Passagens (próximas 24 horas)

TLE

ObsoletoSource: Mike McCants

Época: Sep 9, 2026, 20:49 UTC

1 61030U 24160K   26252.86791069 0.00000000  00000-0  00000-0 0    09
2 61030  70.0200 159.2307 0002000 182.1649 177.8351 14.96713243    03

Acompanhe USA 409 em tempo real com AllMySat

Download on the App Store